Weather History for Syracuse, NY

Change the Weather History Date:

Sunday, July 7, 2013

  Actual Average Record
Temperature  
Mean Temperature 81 °F 71 °F  
Max Temperature 89 °F 82 °F 97 °F (1921)
Min Temperature 72 °F 61 °F 48 °F (1967)
Degree Days  
Heating Degree Days 0 0  
Month to date heating degree days 0 2  
Since 1 June heating degree days 61 63  
Since 1 July heating degree days 0 2  
Cooling Degree Days 16 6  
Month to date cooling degree days 89 42  
Year to date cooling degree days 265 185  
Since 1 June cooling degree days 213 155  
Growing Degree Days 30 (Base 50)    
Moisture  
Dew Point 70 °F    
Average Humidity 71    
Maximum Humidity 87    
Minimum Humidity 55    
Precipitation  
Precipitation 0.05 in 0.12 in 2.05 in (1935)
Month to date precipitation 0.79 0.83  
Year to date precipitation 21.53 18.07  
Snow  
Snow 0.00 in 0.00 in 0.00 in (2002)
Month to date snowfall 0.0 0.0  
Since 1 June snowfall 0.0 0.0  
Since 1 July snowfall 0.0 0.0  
Snow Depth 0.00 in    
Sea Level Pressure  
Sea Level Pressure 29.98 in    
Wind  
Wind Speed 6 mph (West)    
Max Wind Speed 15 mph    
Max Gust Speed 18 mph    
Visibility 10 miles    
Events Rain , Thunderstorm    
T = Trace of Precipitation, MM = Missing Value Source: NWS Daily Summary

Daily Weather History Graph

Daily Weather History Graph

Search for Another Location

Airport:

Trip Planner

Search our weather history database for the weather conditions in past years. The results will help you decide how hot, cold, wet, or windy it might be!

Date:

Astronomy

Jul. 07, 2013 Rise Set
Actual Time 5:32 AM EDT 8:45 PM EDT
Civil Twilight 4:57 AM EDT 9:20 PM EDT
Nautical Twilight 4:12 AM EDT 10:05 PM EDT
Astronomical Twilight 3:17 AM EDT 11:00 PM EDT
Moon 5:08 AM EDT (7/7) 8:06 PM EDT (7/7)
Length of Visible Light 16h 23m
Length of Day
15h 13m
Waning Crescent, 0% of the Moon is Illuminated
Jul 7
Waning Crescent
Jul 8
New
Jul 15
First Quarter
Jul 22
Full
Jul 29
Last Quarter

Hourly Weather History & Observations

Time (EDT) Temp. Heat Index Dew Point Humidity Pressure Visibility Wind Dir Wind Speed Gust Speed Precip Events Conditions
12:54 AM 77.2 °F - 68.2 °F 74% 30.04 in 10.0 mi Calm Calm - 0.00 in   Light Drizzle
1:54 AM 75.0 °F - 68.0 °F 79% 30.02 in 10.0 mi SE 3.5 mph - 0.00 in   Light Drizzle
2:54 AM 73.0 °F - 68.0 °F 84% 30.00 in 10.0 mi ESE 4.6 mph - 0.00 in   Overcast
3:54 AM 73.0 °F - 68.0 °F 84% 30.00 in 10.0 mi Calm Calm - N/A   Overcast
4:42 AM 73.4 °F - 69.8 °F 88% 30.01 in 10.0 mi SSE 3.5 mph - 0.00 in Rain , Thunderstorm Light Thunderstorms and Rain
4:54 AM 73.0 °F - 69.1 °F 87% 30.02 in 6.0 mi WNW 11.5 mph - 0.00 in Rain , Thunderstorm Light Thunderstorms and Rain
5:02 AM 73.4 °F - 69.8 °F 88% 30.05 in 8.0 mi NW 11.5 mph - 0.00 in Rain , Thunderstorm Light Thunderstorms and Rain
5:31 AM 73.4 °F - 69.8 °F 88% 30.04 in 10.0 mi NW 8.1 mph - 0.01 in Rain Light Rain
5:54 AM 72.0 °F - 70.0 °F 93% 30.02 in 10.0 mi Calm Calm - 0.02 in Rain Light Rain
6:22 AM 71.6 °F - 69.8 °F 94% 30.03 in 10.0 mi ESE 3.5 mph - 0.01 in   Mostly Cloudy
6:54 AM 72.0 °F - 70.0 °F 93% 30.01 in 10.0 mi Calm Calm - 0.01 in   Mostly Cloudy
7:54 AM 75.0 °F - 71.1 °F 87% 30.01 in 10.0 mi South 4.6 mph - N/A   Mostly Cloudy
8:54 AM 79.0 °F - 71.1 °F 77% 30.01 in 10.0 mi Variable 3.5 mph - N/A   Mostly Cloudy
9:54 AM 81.0 °F 84.9 °F 71.1 °F 72% 30.01 in 10.0 mi SW 3.5 mph - N/A   Mostly Cloudy
10:54 AM 84.0 °F 89.6 °F 72.0 °F 67% 29.99 in 10.0 mi West 6.9 mph - N/A   Mostly Cloudy
11:54 AM 84.0 °F 89.6 °F 72.0 °F 67% 29.99 in 10.0 mi West 8.1 mph - N/A   Mostly Cloudy
12:54 PM 86.0 °F 91.5 °F 71.1 °F 61% 29.98 in 10.0 mi WSW 8.1 mph - N/A   Mostly Cloudy
1:54 PM 86.0 °F 92.2 °F 72.0 °F 63% 29.97 in 10.0 mi WSW 9.2 mph - N/A   Mostly Cloudy
2:54 PM 88.0 °F 92.9 °F 70.0 °F 55% 29.95 in 10.0 mi WSW 11.5 mph - N/A   Mostly Cloudy
3:54 PM 86.0 °F 90.1 °F 69.1 °F 57% 29.93 in 10.0 mi West 10.4 mph - N/A   Mostly Cloudy
4:54 PM 87.1 °F 92.0 °F 70.0 °F 57% 29.91 in 10.0 mi Variable 5.8 mph - N/A   Mostly Cloudy
5:54 PM 84.9 °F 88.8 °F 69.1 °F 59% 29.91 in 10.0 mi WNW 6.9 mph - N/A   Mostly Cloudy
6:54 PM 82.0 °F 85.5 °F 69.1 °F 65% 29.91 in 10.0 mi NNW 11.5 mph - 0.00 in Rain Light Rain
7:54 PM 81.0 °F 83.8 °F 68.0 °F 65% 29.91 in 10.0 mi NNW 8.1 mph - 0.00 in   Mostly Cloudy
8:54 PM 78.1 °F - 68.0 °F 71% 29.91 in 9.0 mi NNW 8.1 mph - 0.00 in Rain Light Rain
9:54 PM 77.0 °F - 66.9 °F 71% 29.94 in 10.0 mi NNW 3.5 mph - 0.00 in   Mostly Cloudy
10:54 PM 75.0 °F - 71.1 °F 87% 29.96 in 10.0 mi SE 4.6 mph - 0.02 in   Overcast
11:54 PM 75.0 °F - 71.1 °F 87% 29.95 in 10.0 mi Calm Calm - N/A   Overcast